This is the latest recevied weather packets stored in our database for station/object N9XRG. If no packets are shown the sender has not sent any weather packets the latest 10 day(s).
| Time | Temp. | Humidity | Pressure | Rain* | Wind** | Luminosity | Snow |
|---|---|---|---|---|---|---|---|
| 1777379176 | 15° C | 85% | 1010.4 hPa | 0 mm | - | 79 W/m² | - |
| 1777378872 | 15° C | 85% | 1010.4 hPa | 0 mm | - | 63 W/m² | - |
| 1777378568 | 15° C | 86% | 1010.2 hPa | 0 mm | - | 149 W/m² | - |
| 1777378264 | 15° C | 86% | 1010.2 hPa | 0 mm | - | 101 W/m² | - |
| 1777377963 | 15.56° C | 87% | 1010 hPa | 0 mm | - | 97 W/m² | - |
| 1777377663 | 15.56° C | 88% | 1009.8 hPa | 0 mm | - | 77 W/m² | - |
| 1777377358 | 15.56° C | 89% | 1010 hPa | 0 mm | - | 42 W/m² | - |
| 1777377055 | 15.56° C | 90% | 1009.6 hPa | 0 mm | - | 46 W/m² | - |
| 1777376752 | 15.56° C | 90% | 1009.6 hPa | 0 mm | - | 43 W/m² | - |
| 1777376449 | 15.56° C | 90% | 1009.4 hPa | 0 mm | - | 45 W/m² | - |
| 1777376145 | 15.56° C | 91% | 1009.1 hPa | 0 mm | - | 31 W/m² | - |
| 1777375844 | 15.56° C | 91% | 1009.3 hPa | 0 mm | - | 22 W/m² | - |
| 1777375540 | 15.56° C | 92% | 1009 hPa | 0 mm | - | 19 W/m² | - |
| 1777375236 | 15.56° C | 92% | 1009 hPa | 0 mm | - | 16 W/m² | - |
| 1777374931 | 15.56° C | 93% | 1008.9 hPa | 0 mm | - | 14 W/m² | - |
| 1777374627 | 15.56° C | 93% | 1008.9 hPa | 0 mm | - | 8 W/m² | - |
| 1777374324 | 15.56° C | 93% | 1008.6 hPa | 0 mm | - | 7 W/m² | - |
| 1777374020 | 15.56° C | 94% | 1008.6 hPa | 0 mm | - | 6 W/m² | - |
| 1777373717 | 15.56° C | 94% | 1008.5 hPa | 0 mm | - | 6 W/m² | - |
| 1777373415 | 15.56° C | 95% | 1008.4 hPa | 0 mm | - | 4 W/m² | - |
| 1777373109 | 15.56° C | 95% | 1008.2 hPa | 0 mm | - | 2 W/m² | - |
| 1777372805 | 15.56° C | 95% | 1007.8 hPa | 0 mm | - | 1 W/m² | - |
| 1777372499 | 15.56° C | 95% | 1008.2 hPa | 0 mm | - | 0 W/m² | - |
| 1777372197 | 15.56° C | 95% | 1008.1 hPa | 0 mm | - | 0 W/m² | - |
| 1777371893 | 15.56° C | 95% | 1008.2 hPa | 0 mm | - | 0 W/m² | - |
* Rain latest hour (hover to see other rain measurements)
** Current wind speed in m/s (hover to see current wind gust speed)